TimeCDT,TemperatureF,Dew PointF,Humidity,Sea Level PressureIn,VisibilityMPH,Wind Direction,Wind SpeedMPH,Gust SpeedMPH,PrecipitationIn,Events,Conditions,WindDirDegrees,DateUTC
12:15 AM,81.5,72.5,74,29.88,10.0,SSE,12.7,16.1,N/A,,Clear,150,2013-07-15 05:15:00
12:35 AM,81.1,72.5,75,29.88,10.0,SE,9.2,-,N/A,,Clear,140,2013-07-15 05:35:00
12:55 AM,80.8,72.5,76,29.88,10.0,SSE,9.2,-,N/A,,Clear,150,2013-07-15 05:55:00
1:15 AM,80.8,72.3,75,29.88,10.0,SSE,9.2,16.1,N/A,,Clear,150,2013-07-15 06:15:00
1:35 AM,80.6,72.1,75,29.88,10.0,SSE,9.2,-,N/A,,Clear,150,2013-07-15 06:35:00
1:55 AM,80.6,72.1,75,29.87,10.0,SSE,9.2,-,N/A,,Clear,150,2013-07-15 06:55:00
2:15 AM,80.2,72.1,76,29.87,10.0,SSE,8.1,-,N/A,,Clear,160,2013-07-15 07:15:00
2:35 AM,79.7,72.1,78,29.86,10.0,SE,6.9,-,N/A,,Clear,140,2013-07-15 07:35:00
2:55 AM,79.3,72.1,79,29.86,10.0,SSE,8.1,-,N/A,,Clear,150,2013-07-15 07:55:00
3:15 AM,79.2,72.5,80,29.86,10.0,SSE,6.9,-,N/A,,Clear,150,2013-07-15 08:15:00
3:35 AM,79.0,72.5,80,29.85,10.0,SSE,6.9,-,N/A,,Clear,150,2013-07-15 08:35:00
3:55 AM,78.8,72.5,81,29.84,10.0,SSE,8.1,-,N/A,,Clear,150,2013-07-15 08:55:00
4:15 AM,78.8,72.5,81,29.84,10.0,SSE,5.8,-,N/A,,Clear,150,2013-07-15 09:15:00
4:35 AM,78.8,72.5,81,29.84,10.0,SSE,6.9,-,N/A,,Clear,150,2013-07-15 09:35:00
4:55 AM,78.8,72.5,81,29.84,10.0,SSE,6.9,-,N/A,,Scattered Clouds,150,2013-07-15 09:55:00
5:15 AM,78.8,72.1,80,29.84,10.0,SSE,6.9,-,N/A,,Scattered Clouds,160,2013-07-15 10:15:00
5:35 AM,78.4,72.0,80,29.84,10.0,SE,5.8,-,N/A,,Clear,140,2013-07-15 10:35:00
5:55 AM,77.9,72.0,82,29.85,10.0,SE,6.9,-,N/A,,Clear,140,2013-07-15 10:55:00
6:15 AM,77.9,72.0,82,29.85,10.0,SSE,6.9,-,N/A,,Clear,150,2013-07-15 11:15:00
6:35 AM,77.9,71.8,81,29.85,10.0,SE,5.8,-,N/A,,Clear,130,2013-07-15 11:35:00
6:55 AM,77.5,72.0,83,29.85,10.0,SE,5.8,-,N/A,,Clear,130,2013-07-15 11:55:00
7:15 AM,77.9,72.0,82,29.85,10.0,SE,5.8,-,N/A,,Scattered Clouds,140,2013-07-15 12:15:00
7:35 AM,78.6,72.5,81,29.86,10.0,SSE,6.9,-,N/A,,Clear,150,2013-07-15 12:35:00
7:55 AM,79.3,72.5,79,29.86,10.0,SSE,5.8,-,N/A,,Clear,150,2013-07-15 12:55:00
8:15 AM,80.2,72.5,77,29.87,10.0,SSE,8.1,-,N/A,,Clear,150,2013-07-15 13:15:00
8:35 AM,81.3,72.9,75,29.87,10.0,SE,5.8,-,N/A,,Scattered Clouds,140,2013-07-15 13:35:00
8:55 AM,84.2,73.4,70,29.87,10.0,SSE,9.2,-,N/A,,Clear,150,2013-07-15 13:55:00
9:15 AM,84.4,72.7,68,29.88,10.0,SSE,12.7,16.1,N/A,,Scattered Clouds,160,2013-07-15 14:15:00
9:35 AM,84.4,72.5,67,29.88,10.0,SSE,11.5,17.3,N/A,,Scattered Clouds,150,2013-07-15 14:35:00
9:55 AM,85.5,72.3,65,29.88,10.0,SSE,11.5,-,N/A,,Mostly Cloudy,150,2013-07-15 14:55:00
10:15 AM,86.4,71.1,60,29.88,10.0,SSE,16.1,21.9,N/A,,Mostly Cloudy,160,2013-07-15 15:15:00
10:35 AM,86.4,70.5,59,29.88,10.0,SSE,15.0,21.9,N/A,,Mostly Cloudy,150,2013-07-15 15:35:00
10:55 AM,90.9,69.3,49,29.89,10.0,SSE,15.0,-,N/A,,Scattered Clouds,160,2013-07-15 15:55:00
11:15 AM,91.4,67.8,46,29.89,10.0,SSE,17.3,23.0,N/A,,Scattered Clouds,160,2013-07-15 16:15:00
11:35 AM,90.1,69.1,50,29.89,10.0,SSE,18.4,-,N/A,,Scattered Clouds,150,2013-07-15 16:35:00
11:55 AM,90.9,69.3,49,29.89,10.0,SE,15.0,20.7,N/A,,Scattered Clouds,140,2013-07-15 16:55:00
12:15 PM,93.2,67.6,43,29.88,10.0,SSE,15.0,24.2,N/A,,Scattered Clouds,150,2013-07-15 17:15:00
12:35 PM,94.1,66.6,40,29.88,10.0,SSE,11.5,21.9,N/A,,Scattered Clouds,150,2013-07-15 17:35:00
12:55 PM,95.4,65.5,37,29.88,10.0,SE,11.5,18.4,N/A,,Scattered Clouds,140,2013-07-15 17:55:00
1:15 PM,95.5,63.9,35,29.88,10.0,SSE,15.0,21.9,N/A,,Scattered Clouds,160,2013-07-15 18:15:00
1:35 PM,95.0,63.1,35,29.87,10.0,SE,13.8,21.9,N/A,,Scattered Clouds,140,2013-07-15 18:35:00
1:55 PM,96.4,62.4,32,29.86,10.0,SE,10.4,24.2,N/A,,Scattered Clouds,130,2013-07-15 18:55:00
2:15 PM,97.7,62.2,31,29.85,10.0,SE,13.8,23.0,N/A,,Clear,140,2013-07-15 19:15:00
2:35 PM,96.1,62.2,33,29.85,10.0,SE,15.0,18.4,N/A,,Scattered Clouds,140,2013-07-15 19:35:00
2:55 PM,97.9,61.7,30,29.84,10.0,SSE,12.7,23.0,N/A,,Scattered Clouds,150,2013-07-15 19:55:00
3:15 PM,97.0,62.6,32,29.84,10.0,SE,13.8,23.0,N/A,,Mostly Cloudy,140,2013-07-15 20:15:00
3:35 PM,96.1,62.4,33,29.83,10.0,SSE,10.4,25.3,N/A,,Mostly Cloudy,150,2013-07-15 20:35:00
3:55 PM,96.1,63.9,34,29.83,10.0,SE,13.8,21.9,N/A,,Mostly Cloudy,140,2013-07-15 20:55:00
4:15 PM,94.1,64.0,37,29.83,10.0,SE,15.0,27.6,N/A,,Scattered Clouds,140,2013-07-15 21:15:00
4:35 PM,94.8,66.0,39,29.83,10.0,SE,15.0,21.9,N/A,,Mostly Cloudy,130,2013-07-15 21:35:00
4:55 PM,93.4,66.2,41,29.83,10.0,ESE,15.0,21.9,N/A,,Scattered Clouds,110,2013-07-15 21:55:00
5:15 PM,92.8,66.4,42,29.83,10.0,SE,15.0,23.0,N/A,,Scattered Clouds,130,2013-07-15 22:15:00
5:35 PM,92.1,65.3,41,29.83,10.0,SE,15.0,23.0,N/A,,Scattered Clouds,130,2013-07-15 22:35:00
5:55 PM,91.8,64.9,41,29.83,10.0,SSE,13.8,20.7,N/A,,Scattered Clouds,150,2013-07-15 22:55:00
6:15 PM,90.7,66.0,44,29.84,10.0,ESE,16.1,20.7,N/A,,Scattered Clouds,110,2013-07-15 23:15:00
6:35 PM,90.3,65.8,44,29.84,10.0,ESE,13.8,23.0,N/A,,Clear,120,2013-07-15 23:35:00
6:55 PM,89.8,66.9,47,29.84,10.0,ESE,12.7,21.9,N/A,,Clear,120,2013-07-15 23:55:00
7:15 PM,88.2,68.0,51,29.85,10.0,ESE,15.0,24.2,N/A,,Clear,120,2013-07-16 00:15:00
7:35 PM,87.8,67.1,50,29.86,10.0,ESE,10.4,23.0,N/A,,Clear,120,2013-07-16 00:35:00
7:55 PM,87.3,67.1,51,29.87,10.0,ESE,13.8,21.9,N/A,,Clear,120,2013-07-16 00:55:00
8:15 PM,86.5,68.0,54,29.88,10.0,SE,8.1,21.9,N/A,,Clear,130,2013-07-16 01:15:00
8:35 PM,85.8,68.9,57,29.89,10.0,ESE,12.7,17.3,N/A,,Clear,110,2013-07-16 01:35:00
8:55 PM,85.1,68.5,57,29.90,10.0,ESE,11.5,18.4,N/A,,Clear,120,2013-07-16 01:55:00
9:15 PM,84.4,68.5,59,29.90,10.0,ESE,9.2,16.1,N/A,,Clear,120,2013-07-16 02:15:00
9:35 PM,84.0,68.9,60,29.91,10.0,ESE,6.9,-,N/A,,Clear,110,2013-07-16 02:35:00
9:55 PM,83.3,70.0,64,29.92,10.0,ESE,9.2,17.3,N/A,,Clear,120,2013-07-16 02:55:00
10:15 PM,82.9,70.9,67,29.92,10.0,ESE,8.1,-,N/A,,Clear,110,2013-07-16 03:15:00
10:35 PM,82.4,71.6,70,29.93,10.0,ESE,9.2,-,N/A,,Clear,110,2013-07-16 03:35:00
10:55 PM,82.2,72.1,71,29.93,10.0,ESE,8.1,-,N/A,,Clear,110,2013-07-16 03:55:00
11:15 PM,81.9,72.3,73,29.93,10.0,ESE,8.1,-,N/A,,Clear,110,2013-07-16 04:15:00
11:35 PM,81.5,72.5,74,29.94,10.0,ESE,5.8,-,N/A,,Clear,110,2013-07-16 04:35:00
11:55 PM,81.5,72.7,74,29.94,10.0,ESE,5.8,-,N/A,,Clear,110,2013-07-16 04:55:00